Weather in Varegovo

Russia / Yaroslavl Oblast     57°46′35″N   39°16′53″E
temp.,
°C
wind,
m/s
gust,
m/s
humid.,
%
clouds,
%
prec.,
mm/h
press.,
hPa
HPBL,
m
15 april, thu
thu1500:00+11nnw258698 0.0 1018122
03:00+9n279860 0.0 1019211
06:00+9nne4791100 0.0 1019442
09:00+9ne4786100 0.0 1020537
12:00+10ne4879100 0.0 1021622
15:00+10ne5873100 0.0 1022823
18:00+9ene51075100 0.0 1023735
21:00+7ene51380100 0.0 1024635
16 april, fri
fri1600:00+5ene5137895 0.0 1025604
03:00+4ene51384100 0.0 1025541
06:00+3ene5128096 0.0 1026476
09:00+6ene5106494 0.0 1027551
12:00+10ene5853100 0.0 1027839
15:00+12ene5744100 0.0 10261111
18:00+11ene494339 0.0 1026916
21:00+7ene4135856 0.0 1028437
17 april, sat
sat1700:00+5ene4136548 0.0 1028401
03:00+3ene4127162 0.0 1029349
06:00+2ene4127440 0.0 1030351
09:00+7ene510535 0.0 1030660
12:00+11ene57405 0.0 10301199
15:00+12ene46375 0.0 10291443
18:00+11ene47450 0.0 1029691
21:00+6ne28680 0.0 1030164
18 april, sun
sun1800:00+4ne39760 0.0 1030198
03:00+3ne28815 0.0 1031147
06:00+2ne278084 0.0 1032152
09:00+8ene355774 0.0 1032466
12:00+11ene354457 0.0 10311389
15:00+13ene454080 0.0 10311646
18:00+11ene364993 0.0 1031465
21:00+7ene276976 0.0 1032142
19 april, mon
mon1900:00+6ese4107498 0.0 1033409
03:00+4ese3880100 0.0 1035272
06:00+4ese3779100 0.0 1036286
09:00+6ese466486 0.0 1035612
12:00+9se454659 0.0 10351331
15:00+10se4536100 0.0 10341547
18:00+9ese354039 0.0 1034951
21:00+5ese411535 0.0 1034346